This is the latest recevied weather packets stored in our database for station/object EA5FOG-11. If no packets are shown the sender has not sent any weather packets the latest 10 day(s).
| Time | Temp. | Humidity | Pressure | Rain* | Wind** | Luminosity | Snow |
|---|---|---|---|---|---|---|---|
| 1777239755 | 14.44° C | 54% | 961.1 hPa | - | - | - | - |
| 1777238854 | 14.44° C | 53% | 961 hPa | - | - | - | - |
| 1777237954 | 15° C | 52% | 961 hPa | - | - | - | - |
| 1777237053 | 15.56° C | 51% | 961 hPa | - | - | - | - |
| 1777236152 | 15.56° C | 51% | 960.7 hPa | - | - | - | - |
| 1777235251 | 16.11° C | 50% | 960.4 hPa | - | - | - | - |
| 1777234350 | 16.11° C | 49% | 960.2 hPa | - | - | - | - |
| 1777233450 | 16.67° C | 48% | 960 hPa | - | - | - | - |
| 1777232549 | 16.67° C | 47% | 959.8 hPa | - | - | - | - |
| 1777230765 | 17.78° C | 44% | 959.5 hPa | - | - | - | - |
| 1777229864 | 18.33° C | 43% | 959.4 hPa | - | - | - | - |
| 1777228964 | 19.44° C | 41% | 959.2 hPa | - | - | - | - |
| 1777228063 | 20° C | 40% | 959 hPa | - | - | - | - |
| 1777227162 | 20.56° C | 38% | 958.9 hPa | - | - | - | - |
| 1777226261 | 22.22° C | 37% | 958.7 hPa | - | - | - | - |
| 1777225360 | 27.78° C | 32% | 958.7 hPa | - | - | - | - |
| 1777224459 | 30° C | 30% | 958.7 hPa | - | - | - | - |
| 1777223559 | 31.67° C | 30% | 958.7 hPa | - | - | - | - |
| 1777222658 | 31.67° C | 29% | 958.7 hPa | - | - | - | - |
| 1777221757 | 32.22° C | 29% | 958.5 hPa | - | - | - | - |
| 1777220856 | 32.78° C | 29% | 958.5 hPa | - | - | - | - |
| 1777219956 | 33.89° C | 29% | 958.6 hPa | - | - | - | - |
| 1777219055 | 34.44° C | 29% | 958.6 hPa | - | - | - | - |
| 1777218154 | 33.89° C | 29% | 958.7 hPa | - | - | - | - |
| 1777217253 | 34.44° C | 29% | 958.7 hPa | - | - | - | - |
* Rain since midnight (hover to see other rain measurements)
** Current wind speed in m/s (hover to see current wind gust speed)